User: anonymous   Login
Location: Unspecified
(0.0000°N, 0.0000°E)
Time: 19:48:25
(UTC+00:00)
Language:

Diapason D-1A - Orbit

View from above orbital plane
View from above orbital plane
View from above satellite
View from above satellite

Ground track
Ground track

The orbit data is extracted from the following two-line orbital elements,

1 02016U 66013A   17269.51832916  .00000596  00000-0  17347-3 0  9990
2 02016  34.0916  62.7338 1187340 172.3241 189.7432 12.59558070337635
Epoch (UTC): 26 September 2017 12:26:23
Eccentricity: 0.1187340
inclination: 34.0916°
perigee height: 498 km
apogee height: 2351 km
right ascension of ascending node: 62.7338°
argument of perigee: 172.3241°
revolutions per day: 12.59558070
mean anomaly at epoch: 189.7432°
orbit number at epoch: 33763

The dashed part of the orbit path shows where the satellite is in the earth's shadow,  

DLR